This is the latest recevied weather packets stored in our database for station/object OE-11349. If no packets are shown the sender has not sent any weather packets the latest 10 day(s).
| Time | Temp. | Humidity | Pressure | Rain* | Wind** | Luminosity | Snow |
|---|---|---|---|---|---|---|---|
| 1787649909 | 12.22° C | 92% | 849.5 hPa | - | - | 399 W/m² | - |
| 1787649081 | 12.22° C | 94% | 849.5 hPa | - | - | 454 W/m² | - |
| 1787648709 | 11.67° C | 97% | 849.7 hPa | - | - | 158 W/m² | - |
| 1787648109 | 11.11° C | 96% | 849.8 hPa | - | - | 69 W/m² | - |
| 1787647281 | 11.11° C | 97% | 850 hPa | - | - | 48 W/m² | - |
| 1787646909 | 11.11° C | 98% | 849.8 hPa | - | - | 55 W/m² | - |
| 1787646309 | 11.11° C | 97% | 849.7 hPa | - | - | 96 W/m² | - |
| 1787645481 | 11.11° C | 97% | 849.8 hPa | - | - | 76 W/m² | - |
| 1787645109 | 11.11° C | 97% | 850 hPa | - | - | 62 W/m² | - |
| 1787644509 | 11.11° C | 97% | 849.8 hPa | - | - | 41 W/m² | - |
| 1787643682 | 11.11° C | 97% | 849.8 hPa | - | - | 34 W/m² | - |
| 1787643309 | 11.11° C | 97% | 849.8 hPa | - | - | 21 W/m² | - |
| 1787642709 | 11.11° C | 97% | 849.7 hPa | - | - | 14 W/m² | - |
| 1787641882 | 11.11° C | 96% | 849.8 hPa | - | - | 28 W/m² | - |
| 1787641508 | 11.11° C | 97% | 849.7 hPa | - | - | 28 W/m² | - |
| 1787640908 | 10.56° C | 97% | 849.7 hPa | - | - | 14 W/m² | - |
| 1787640082 | 10.56° C | 96% | 849.7 hPa | - | - | 14 W/m² | - |
| 1787639708 | 10.56° C | 95% | 849.8 hPa | - | - | 14 W/m² | - |
| 1787639109 | 11.11° C | 94% | 849.7 hPa | - | - | 21 W/m² | - |
| 1787638281 | 11.11° C | 93% | 849.7 hPa | - | - | 21 W/m² | - |
| 1787637909 | 11.11° C | 93% | 849.7 hPa | - | - | 28 W/m² | - |
| 1787637309 | 11.11° C | 93% | 849.7 hPa | - | - | 28 W/m² | - |
| 1787636481 | 11.11° C | 90% | 849.6 hPa | - | - | 28 W/m² | - |
| 1787636108 | 11.11° C | 89% | 849.7 hPa | - | - | 14 W/m² | - |
| 1787635508 | 11.11° C | 89% | 849.7 hPa | - | - | 14 W/m² | - |
* Rain since midnight (hover to see other rain measurements)
** Current wind speed in m/s (hover to see current wind gust speed)